44P/Reinmuth 2 (2022)

Japanese version
Home page
Updated on May 3, 2020

---------------------------------------------------------------------

* Profile

* Orbital Elements

Epoch 2022 Apr. 11.0 TT = JDT 2459680.5
T 2022 Apr. 23.27796 TT                                 Rudenko
q   2.1126830            (2000.0)            P               Q
n   0.13891241     Peri.   58.08755     +0.95959535     +0.26357570
a   3.6923996      Node   286.47076     -0.28014130     +0.86203430
e   0.4278293      Incl.    5.89625     -0.02641241     +0.43292577
P   7.10
From 518 observations 2014 May 1-2020 Apr. 22, mean residual 0".6.
     Nongravitational parameters A1 = -0.06, A2 = -0.0597.

* Finding Charts

* Magnitudes Graph

        m1 = 10.0 + 5 log d + 15.0 log r  [ ,0]  (             - 2022 Apr. 23)
        m1 = 11.6 + 5 log d + 10.0 log r  [0, ]  (2022 Apr. 23 -             )

---------------------------------------------------------------------

The orbital elements are published on M.P.E.C. 2020-H235.
The charts are made with StellaNavigator Ver.10 (AstroArts).
The magnitudes graphs are made with Comet for Windows.

---------------------------------------------------------------------

Copyright(C) Seiichi Yoshida (comet@aerith.net). All rights reserved.